Misión y Visión

La misión es proporcionar información fiable a la navegación aérea, contribuyendo a la seguridad, regularidad y eficiencia de la Navegación Aérea Internacional

La visión es contribuir sustancialmente al desarrollo de conocimientos y a la utilización de la meteorología aeronáutica a nivel nacional e internacional, mediante la innovación y la coparticipación con sectores sociales y productivos de la sociedad.

 
  Inicio
  Metar
  Taf
  Wintemp
  SIGMET
  Avisos
  Pronósticos
  Carpeta Meteorologica
  Imágenes Satelitales
  Climatología Aeronáutica
   
  ¿Quienes Somos?
  Contacto
  Eventos
  Publicaciones
  Politica de la Calidad
Taf

DIRECCIONES PARA INFORMES NACIONALES E INTERNACIONALES
(Metar /Speci - TAF)

http://adds.aviationweather.gov/tafs/index.php

http://www.ogimet.com/metars.phtml

PRONÓSTICOS DE AERÓDROMO

Cuando sea necesario, el encabezamiento abreviado puede incluir un cuarto grupo consistente en tres letras para identificar los boletines demorados (RRA), corregidos (CCA) o enmendados (AAA). Los boletines adicionales demorados, corregidos o enmendados deben identificarse con las letras RRB, RRC, etc.; CCB, CCC,etc.;AAB, AAC,etc.

 

DÍA 24/11/2014

TAF MPTO 

TAF MPTO 231000Z 2312/2412 00000KT 9999 SCT020 SCT090 PROB30 TEMPO 2319/2323 19006KT 6000 -TSRA SCT015CB BKN080 BECMG 2323/2402 00000KT 9999 NSW SCT018

     TAF MPPA   

TAF MPPA 231000Z 2312/2412 00000KT 9999 SCT020 SCT100 PROB30 TEMPO 2319/2323 18006KT 6000 -TSRA SCT015CB BKN090 BECMG 2323/2402 00000KT 9999 NSW SCT018

TAF MPMG  TAF MPMG 230600Z 2306/2318 31006KT 9000 SCT018 SCT090 BECMG 2314/2318 00000KT 9999 FEW018 SCT090

TAF MPDA 

 

TAF MPDA 230600Z 2306/2318 22005KT 9999 SCT020 SCT090 BECMG 2314/2318 21008KT 9999 SCT020 BKN100
 

 

 
 















  Noticias AAC
  Directorio
  Contáctenos
  Historia
  Quejas y Sugerencias
  Etica y Transparencia

  Gestión SSP/SMS
  Seguridad Aérea
  Navegación Aérea
  Transporte Aéreo

  Tramites
  Áeronaves de Alquiler

  Meteorología
  I.S.F.P.A
  Notam
  Peligro Aviario
  AVSEC
  UPIA
  Permisos
 




DECLARACIÓN DE PRIVACIDAD